User: anonymous   Login
Location: Sabalos
(43.2860°N, 0.1414°E)
Time: 21:52:27
(UTC+00:00)
Language:

IGS 5A - Orbit

View from above orbital plane
View from above orbital plane
View from above satellite
View from above satellite

Ground track
Ground track

The orbit data is extracted from the following two-line orbital elements,

1 36104U 09066A   20265.82165539 0.00000000  00000-0  00000-0 0    02
2 36104  97.5788 324.4791 0003386 102.8682 257.1509 14.93831105    01
Epoch (UTC): 21 September 2020 19:43:11
Eccentricity: 0.0003386
inclination: 97.5788°
perigee height: 583 km
apogee height: 588 km
right ascension of ascending node: 324.4791°
argument of perigee: 102.8682°
revolutions per day: 14.93831105
mean anomaly at epoch: 257.1509°
orbit number at epoch: 0

The dashed part of the orbit path shows where the satellite is in the earth's shadow,  

DLR